Location: Ciserano
(45.5833°N, 9.6000°E)
Time: 06:17:24
(UTC+00:00)

Meteor 2-3 Rocket - Pass Details

Date: 29 November 2020
Orbit: 842 x 885 km, 81.2° (Epoch: 27 January)

Event Time Altitude Azimuth Distance (km) Brightness Sun altitude
Rises 05:06:29 0° 217° (SW) 3,442 6.7 -15.8°
Reaches altitude 10° 05:09:09 10° 227° (SW) 2,516 5.9 -15.4°
Maximum altitude 05:14:15 33° 291° (WNW) 1,442 4.4 -14.5°
Drops below altitude 10° 05:19:27 10° 354° (N) 2,552 6.0 -13.6°
Sets 05:22:11 0° 4° (N) 3,499 6.8 -13.2°
